Theta_e
306 307 307 307 308 308 307 307 308 309 309 310 311 311 310 310 311 310 311 312 309 310 311 310 312 312 312 313 310 316 328 337 343 348 352 352 351 349 348 347 346 346 343 338 336 337 337 337 337 337 338 338 339 339 338 337 337 336 336 337 337 337 337 337 336 336 335 335 336 336 336 336 335 335 335 335 335 336 336 336 336 336 336 336 337 337
306 308 307 307 309 309 308 309 309 309 309 309 310 311 309 309 311 311 311 311 309 310 312 311 311 312 313 314 311 317 334 344 346 350 353 351 350 349 348 347 346 345 342 337 337 336 336 337 337 337 338 338 339 339 339 338 336 336 335 336 337 337 337 337 337 336 336 336 335 335 335 335 335 335 335 336 336 336 336 336 336 336 337 337 337 337
306 307 307 307 310 310 308 310 310 309 309 309 310 310 311 310 310 311 311 311 309 310 315 314 310 311 313 312 313 318 328 339 340 347 352 351 350 349 347 347 346 345 342 339 338 336 336 337 336 337 337 338 339 339 339 337 336 336 336 336 337 337 337 338 338 337 335 335 335 335 335 335 336 336 336 336 336 336 336 336 337 337 337 337 337 337
307 307 307 309 310 309 309 309 310 310 310 310 310 311 312 310 310 312 311 312 310 310 316 315 312 314 315 312 314 323 333 340 339 341 347 348 349 348 347 346 345 345 343 341 339 337 336 336 336 337 337 338 338 339 338 337 336 336 336 337 337 337 338 338 338 336 334 334 335 335 335 335 336 336 336 336 336 336 336 336 337 337 337 338 338 338
307 307 307 309 309 310 309 309 310 309 309 310 309 311 312 309 311 312 311 314 313 311 314 313 311 314 318 314 312 326 337 342 339 338 342 345 346 346 345 344 344 344 342 341 339 338 337 336 336 336 336 337 337 338 338 337 337 336 336 337 338 338 339 339 338 335 335 335 335 335 335 335 335 335 336 335 336 336 336 336 337 337 338 338 339 338
307 307 307 308 309 309 309 309 309 308 309 310 309 309 310 310 311 310 310 315 314 311 313 311 310 317 325 318 311 328 339 340 338 338 339 342 344 345 345 343 343 343 342 341 339 338 337 336 336 336 336 337 337 337 337 337 338 337 336 337 338 338 339 340 338 336 336 336 335 335 335 334 334 334 335 335 335 336 336 337 337 338 338 338 338 337
306 306 306 308 308 309 309 309 308 308 308 310 309 308 310 310 310 309 309 313 315 314 313 310 311 321 328 318 317 335 344 339 337 338 338 339 342 343 343 342 342 342 342 341 338 337 338 336 336 336 336 336 336 336 337 338 338 336 335 337 337 337 337 339 338 336 336 336 335 335 335 335 334 334 335 334 335 336 336 337 337 337 337 337 337 337
306 306 306 307 308 308 309 309 309 308 309 310 309 307 309 309 309 310 308 311 317 317 315 314 311 316 318 314 325 337 340 337 336 337 337 337 339 340 340 340 341 341 341 340 339 338 338 336 336 336 336 336 336 336 337 337 338 336 335 336 336 336 336 337 337 335 335 335 335 335 334 334 334 334 335 335 335 336 336 337 336 336 336 336 336 335
306 306 306 306 308 308 308 310 309 308 310 311 308 307 310 309 308 309 308 311 316 313 315 318 313 312 315 321 332 335 336 339 340 340 340 338 338 338 338 339 340 340 339 339 339 339 338 336 336 336 336 336 335 336 337 337 337 335 334 336 335 335 336 336 335 335 335 335 335 335 335 335 334 335 335 335 336 336 336 336 335 335 335 333 332 331
305 306 306 305 307 308 309 310 309 308 311 309 306 309 310 309 309 309 309 310 312 311 313 316 312 312 316 328 339 338 340 346 345 341 337 336 337 337 338 339 340 339 338 337 338 338 338 336 336 336 336 335 335 336 337 337 336 335 334 335 335 335 336 335 335 335 335 335 335 335 335 335 335 335 335 335 336 335 335 334 333 333 332 330 329 329
305 306 306 306 307 308 309 309 307 309 311 307 306 308 308 310 311 311 312 310 309 313 316 315 313 312 313 325 338 339 345 352 347 341 336 334 337 338 338 339 339 338 337 337 338 337 337 336 336 336 336 335 335 335 336 335 334 334 334 335 335 335 335 335 335 335 335 335 336 335 335 335 335 335 335 336 335 334 335 333 331 331 330 328 327 327
306 306 306 307 308 308 309 309 307 308 309 307 307 309 309 311 310 309 311 309 309 316 321 318 314 311 312 322 332 336 345 347 339 337 337 337 338 337 337 338 338 338 337 337 338 338 337 337 336 336 336 335 335 335 334 334 333 333 334 334 335 334 334 335 335 335 336 336 336 336 335 335 335 336 336 336 335 334 334 332 330 329 328 327 326 326
306 306 306 307 309 309 309 309 307 307 307 307 309 310 310 311 310 309 310 312 313 316 317 315 311 310 314 320 325 329 337 342 338 333 330 334 336 336 337 337 337 337 337 337 338 338 338 337 337 336 336 336 335 335 334 334 334 333 334 334 334 334 334 334 335 335 336 336 336 336 336 335 335 335 336 336 335 334 334 332 329 328 327 326 325 324
306 306 305 306 308 308 309 309 308 307 307 306 308 309 310 310 310 310 310 311 315 317 315 312 311 313 315 318 320 318 320 328 333 332 332 334 336 336 336 337 337 337 337 337 337 338 338 337 337 336 336 336 335 335 335 334 335 334 334 334 334 334 334 334 335 335 336 336 336 335 335 335 335 335 336 335 334 334 333 332 329 327 326 325 324 324
307 308 308 306 307 308 309 309 309 309 308 306 308 309 310 311 312 312 313 313 315 317 314 310 312 317 316 318 324 321 320 325 331 337 341 340 336 335 336 336 337 338 337 338 337 337 337 336 336 336 336 336 335 335 335 335 335 334 334 334 334 335 334 334 335 335 335 336 336 335 335 335 336 335 335 334 334 334 332 330 328 326 325 324 323 322
306 309 309 306 306 307 308 309 309 310 310 307 307 309 309 312 317 317 316 321 322 316 313 313 317 324 321 320 327 329 334 337 339 343 344 341 336 334 337 337 337 338 337 338 337 337 336 335 336 336 335 336 336 335 335 335 335 335 334 334 335 335 335 335 335 335 335 335 335 335 335 335 336 335 334 334 334 332 330 328 327 325 324 323 322 321
307 309 309 305 306 306 307 309 308 309 313 309 306 308 308 310 319 317 312 321 322 314 317 317 315 319 317 318 331 337 343 343 340 341 340 338 336 335 337 337 337 339 338 338 337 336 336 335 336 336 335 336 335 335 335 335 335 335 334 334 335 335 335 335 335 335 335 335 335 335 335 335 335 334 334 334 332 330 327 326 325 324 322 322 321 320
309 311 310 305 305 306 306 308 307 308 311 309 307 310 308 307 316 320 315 320 319 316 322 319 313 317 315 319 336 343 346 343 337 338 338 336 336 336 337 338 338 339 338 337 337 336 336 336 335 335 335 335 335 335 335 335 335 335 334 335 336 336 336 335 335 335 335 335 335 335 335 334 334 334 333 333 330 327 325 324 323 322 321 320 320 319
309 310 311 307 306 307 306 306 308 307 306 309 310 310 311 312 315 317 316 319 317 316 320 316 315 321 317 322 340 345 347 346 337 336 338 337 337 337 337 339 338 338 338 337 337 336 336 335 335 335 335 335 334 335 335 335 335 335 334 334 335 335 336 335 336 336 335 335 335 334 334 333 333 333 332 330 327 326 325 323 322 321 320 319 319 319
310 310 310 307 306 306 306 307 307 306 305 308 310 307 310 317 316 314 315 319 318 319 322 317 316 320 320 331 349 348 345 341 337 337 339 337 337 336 337 338 338 338 339 337 337 336 336 335 334 335 334 334 335 334 335 335 335 335 334 335 335 335 335 336 336 334 332 333 334 334 333 332 331 331 330 327 326 324 323 322 321 321 320 319 318 318
309 310 311 310 307 305 307 307 307 307 306 306 308 308 308 310 312 314 314 315 316 322 327 322 318 324 328 334 344 345 341 337 336 338 338 337 337 336 337 337 337 338 338 336 336 336 336 335 334 334 334 334 335 334 335 335 335 335 335 335 335 334 334 333 332 333 332 331 333 333 331 329 328 328 327 325 324 323 321 320 320 320 319 318 317 317
309 313 314 311 307 305 307 308 307 307 306 307 309 309 308 309 313 314 312 313 315 320 324 321 320 330 334 333 337 341 338 335 335 336 337 338 337 336 337 337 337 338 337 336 336 336 336 335 333 334 334 334 335 334 335 335 335 335 334 334 334 332 332 332 331 331 331 328 329 329 328 327 327 325 324 322 322 321 320 319 319 319 318 317 317 316
313 313 313 311 308 308 308 308 308 308 307 309 309 308 309 312 314 317 320 320 313 313 320 318 317 330 339 335 338 339 335 334 336 336 337 337 336 336 337 337 337 338 337 336 337 336 335 334 333 333 334 334 335 334 335 335 334 333 332 332 332 330 330 332 330 329 328 327 327 326 325 325 324 323 322 321 320 319 318 318 318 318 317 317 316 316
313 310 311 314 312 309 308 307 307 308 307 307 309 309 308 310 314 325 335 329 315 315 321 316 317 331 336 331 333 334 331 336 339 338 337 336 336 337 336 337 338 337 337 337 337 336 335 333 333 333 333 334 335 334 334 333 332 331 330 330 330 329 329 328 326 326 326 325 324 323 322 322 321 321 320 319 318 318 317 317 317 317 316 316 315 315
313 314 313 313 311 309 310 308 306 307 307 307 310 309 307 309 311 318 325 320 314 318 321 318 325 336 334 328 332 335 333 337 339 337 337 337 337 338 337 337 337 337 338 338 337 336 334 334 334 333 333 334 333 333 332 331 330 328 328 329 329 327 326 326 324 323 323 322 320 319 319 319 319 319 319 318 317 317 317 316 316 315 315 315 314 314
314 319 317 316 315 311 311 311 308 309 308 309 310 308 308 309 308 313 319 315 314 317 317 321 330 338 340 337 336 338 336 338 338 337 338 338 338 339 338 337 337 338 339 338 337 336 334 335 334 333 333 333 331 331 330 329 328 326 326 327 328 326 325 325 323 320 319 319 318 317 317 318 318 319 318 317 316 316 316 315 315 314 314 313 313 313
313 319 321 321 320 313 312 314 312 311 310 310 310 308 309 309 308 315 320 318 320 320 318 329 335 334 345 348 340 339 338 338 339 339 339 339 339 339 338 337 337 338 338 337 336 335 335 335 335 333 332 331 329 329 328 327 325 325 324 324 324 324 324 322 319 318 317 317 317 317 316 317 318 317 317 316 315 315 315 314 314 313 313 313 313 312
311 313 319 322 319 314 314 315 312 310 311 310 310 309 310 311 311 314 316 320 324 319 319 338 340 333 346 353 343 339 339 338 339 340 339 339 339 339 338 337 338 338 337 336 335 335 335 335 334 333 331 329 328 327 326 325 324 323 323 322 321 321 321 319 317 316 316 316 316 316 316 317 317 316 315 315 314 314 313 313 313 312 312 311 311 310
313 313 318 319 317 314 314 313 312 311 311 310 311 311 311 314 314 312 318 326 323 314 320 338 339 339 352 354 342 339 338 337 339 339 338 339 339 339 338 338 339 338 337 336 335 335 334 334 334 332 329 328 327 326 324 323 322 321 321 321 320 319 318 317 316 316 317 316 316 316 317 316 315 315 314 314 313 313 313 312 312 311 310 309 309 309
313 319 324 318 315 316 316 313 310 310 311 310 312 313 313 317 316 314 324 331 322 318 331 338 340 348 352 344 338 337 335 336 338 338 339 340 339 339 339 338 338 338 336 335 335 335 334 333 333 330 328 327 326 324 323 321 320 320 319 319 319 318 317 316 316 317 319 317 315 316 315 315 314 314 313 313 312 312 311 310 310 309 308 308 308 309
312 322 327 320 314 316 318 314 309 310 313 312 312 315 315 315 315 318 329 331 324 328 337 336 342 352 346 336 334 333 332 337 340 339 340 340 339 338 338 338 338 337 336 335 335 334 333 333 332 329 328 327 325 323 322 320 319 319 318 317 317 317 315 315 316 317 317 315 314 314 314 314 314 313 312 312 312 311 310 309 308 308 308 308 309 309
314 318 322 325 323 317 316 316 312 312 315 313 313 316 317 319 319 320 327 328 326 334 338 331 336 349 345 335 333 333 335 339 340 340 341 340 338 338 338 338 337 336 336 335 334 334 333 333 331 329 327 326 324 322 321 320 319 318 317 317 316 316 316 316 316 315 314 314 313 313 314 313 312 311 311 311 311 310 309 308 307 307 307 308 309 309
318 315 316 326 326 314 314 318 315 314 315 314 319 321 319 322 323 318 320 325 328 337 341 333 332 344 341 334 334 335 337 340 340 340 341 339 338 338 337 336 336 335 335 335 334 334 333 332 330 328 327 325 323 322 320 319 318 317 317 316 315 315 315 315 314 313 313 313 312 312 313 312 311 311 311 310 309 309 308 307 306 307 307 308 308 308
321 316 314 326 327 314 316 319 314 314 315 317 324 326 319 318 322 319 320 326 327 330 337 337 333 334 336 334 334 335 336 338 339 337 338 338 338 337 337 336 335 335 334 334 333 333 332 330 329 327 326 325 323 321 320 319 318 317 316 316 314 314 314 314 313 313 312 312 311 312 311 311 311 310 310 309 308 308 307 306 306 306 306 307 308 308
321 318 317 327 329 319 321 324 316 315 320 323 324 322 321 321 324 323 322 324 325 325 331 336 333 332 337 335 332 334 336 336 336 336 336 337 336 337 337 336 334 334 334 333 332 332 330 328 327 326 325 324 322 320 319 318 318 316 315 315 314 313 313 313 313 312 312 312 311 311 311 310 310 309 308 308 307 307 306 306 305 305 306 307 308 307
318 317 320 323 319 316 323 325 320 318 323 326 323 320 323 321 319 320 318 318 322 326 331 337 336 334 337 335 333 336 336 335 335 337 337 335 334 336 336 335 334 334 333 332 331 330 328 327 325 325 324 323 321 320 319 318 317 316 314 314 313 313 313 313 312 312 311 311 311 310 310 310 309 307 307 307 307 306 306 305 305 305 305 306 307 307
315 317 327 325 315 318 325 323 323 325 324 326 326 322 322 318 314 322 324 317 319 324 329 336 339 336 336 336 336 336 335 335 337 337 336 336 335 335 335 334 334 332 331 330 329 329 328 327 326 324 323 322 320 319 318 317 316 315 314 313 313 312 312 312 312 312 311 310 310 309 309 309 308 307 306 306 306 306 305 305 305 304 305 306 306 306
312 313 327 327 317 321 327 321 324 329 324 326 330 324 322 321 318 322 326 320 319 322 325 332 337 337 336 336 336 336 337 342 345 342 336 336 336 335 335 335 332 329 329 328 327 327 326 325 324 323 322 321 319 319 318 316 315 314 313 313 312 312 312 312 312 311 311 310 310 309 309 309 308 307 306 306 306 306 304 304 303 304 304 305 306 306
313 313 324 329 323 326 333 326 323 325 323 326 330 326 323 323 320 320 320 319 320 321 323 329 335 336 337 336 335 336 342 351 357 348 336 333 335 335 334 334 331 328 327 328 327 325 323 322 322 321 321 320 318 317 317 316 315 314 313 312 312 311 312 312 311 311 311 310 309 308 308 308 308 307 306 306 306 305 304 302 302 303 303 304 306 306
323 324 326 327 324 327 333 326 319 322 325 324 325 327 324 318 317 318 319 323 325 323 323 329 334 335 336 335 335 339 346 352 354 345 333 331 334 332 330 331 330 327 326 327 325 323 322 321 320 319 319 319 318 317 316 315 314 313 312 312 311 311 311 311 310 310 310 310 309 308 308 309 308 307 307 306 306 304 303 301 301 302 302 303 304 305
325 325 323 326 326 326 329 323 316 321 326 322 323 328 323 316 318 324 327 329 329 327 326 329 332 333 334 335 337 341 341 338 337 334 331 331 332 331 327 325 325 326 326 325 323 321 321 320 319 319 319 319 318 316 315 315 314 313 312 312 311 311 310 310 310 310 310 310 308 308 308 309 308 308 307 307 305 303 301 300 300 301 302 303 303 304
322 318 319 326 323 318 324 325 319 321 324 321 322 324 320 317 323 330 329 327 327 326 328 328 330 332 334 334 336 337 333 329 328 329 330 330 331 330 327 323 323 325 324 323 322 321 320 320 319 319 319 318 317 315 315 314 313 312 311 311 311 310 310 310 310 310 310 309 308 307 308 308 308 308 307 306 303 301 299 299 300 301 302 302 303 303
318 315 318 320 314 314 326 326 320 324 325 321 323 327 325 324 329 331 329 329 328 328 328 328 328 331 334 334 333 332 331 329 329 329 328 329 329 327 326 324 323 323 322 321 320 320 320 320 318 318 318 317 315 315 314 314 312 311 311 311 310 310 311 310 310 310 310 309 308 307 307 308 308 307 305 304 301 299 298 299 300 301 302 302 302 301
316 315 320 321 316 318 324 321 319 326 327 322 325 330 328 325 324 325 328 331 331 330 331 331 329 329 331 334 333 331 329 328 328 328 329 328 327 326 325 324 323 321 320 320 320 320 320 319 318 317 317 316 315 314 314 313 312 311 311 310 310 310 310 310 309 310 309 309 307 307 308 308 307 306 304 302 300 298 297 299 300 300 300 301 301 300
317 315 318 322 320 317 317 319 322 325 324 322 323 326 327 326 323 322 326 330 332 330 328 330 332 329 329 331 332 333 332 328 325 327 328 327 326 325 324 324 322 320 320 320 319 319 319 319 318 317 316 315 314 314 313 313 312 311 310 310 310 310 310 309 309 309 309 308 308 307 308 308 307 306 304 301 300 298 297 298 300 299 299 300 300 299
318 316 316 321 322 319 318 322 323 324 325 324 323 323 325 326 324 323 327 332 332 328 324 326 328 328 328 328 328 331 332 327 324 325 327 326 326 325 323 323 321 320 320 319 318 318 319 318 317 316 315 314 314 313 313 314 314 313 310 310 310 310 310 309 309 309 309 308 308 308 308 307 306 305 303 301 300 298 296 298 299 299 298 299 299 299
319 317 318 323 326 325 325 325 323 324 325 324 324 325 326 324 322 322 325 329 329 327 325 324 322 323 325 326 327 330 329 324 323 325 325 325 325 324 323 322 320 319 319 318 318 318 318 317 316 315 314 314 313 313 313 313 314 313 311 310 310 310 310 309 309 309 309 308 308 307 307 307 305 304 302 300 299 297 296 296 298 298 298 298 298 298
317 316 318 322 324 325 324 323 323 324 323 322 323 325 325 325 326 324 322 323 325 325 325 323 321 322 323 324 326 328 326 322 323 324 324 324 324 323 322 321 319 319 318 317 317 317 316 316 315 314 314 313 312 312 313 312 312 311 311 310 310 310 309 309 309 309 308 308 307 306 306 306 305 303 301 299 298 297 295 295 296 296 296 296 296 296
317 318 318 318 322 324 323 323 324 326 326 325 324 323 322 322 325 326 324 324 326 328 328 325 322 322 323 324 324 325 324 322 322 322 322 322 322 321 320 319 318 318 317 316 316 317 316 315 315 314 313 313 311 312 312 311 310 310 310 310 310 309 309 309 309 308 307 306 306 306 305 306 305 304 302 299 297 296 295 295 296 296 296 296 296 295
320 322 320 319 324 327 324 323 322 324 327 328 325 324 323 319 321 328 330 328 328 328 329 328 326 322 322 321 321 323 324 322 321 323 323 323 322 320 318 318 317 317 317 316 316 316 315 315 314 313 312 311 311 311 311 309 308 309 309 309 309 309 309 309 308 306 305 305 305 305 304 304 304 303 302 299 297 296 296 297 298 298 298 298 297 297
320 321 319 321 325 324 322 321 319 320 324 326 323 323 322 317 319 328 330 327 326 325 325 328 330 326 323 321 318 320 323 321 320 322 324 323 321 319 317 317 316 315 315 315 315 315 315 314 313 313 311 310 310 310 309 308 308 308 309 309 309 309 309 308 306 305 304 304 304 304 304 303 302 302 301 299 297 297 298 298 298 299 299 299 299 298
Wind_Speed
5 4 7 8 7 9 8 8 9 3 5 9 6 5 6 4 3 4 4 6 6 7 7 8 8 9 12 15 12 5 4 4 4 7 10 11 10 10 11 11 12 12 6 7 13 17 18 19 21 21 22 21 19 21 22 20 15 14 17 16 15 18 19 20 21 21 21 22 23 22 21 19 17 16 14 13 13 13 12 11 10 10 10 9 8 7
5 8 9 7 5 8 8 7 9 6 3 6 6 5 5 5 4 5 4 5 3 5 5 7 9 10 12 13 11 6 7 6 8 10 11 12 12 11 12 14 13 8 4 7 10 14 17 18 19 20 21 21 20 22 23 21 19 19 20 15 14 17 18 19 20 19 21 23 22 20 20 18 16 14 14 13 13 13 12 12 11 10 9 7 6 6
7 9 7 7 5 7 8 7 8 9 4 3 3 5 4 3 3 4 5 3 3 5 4 5 8 9 11 13 9 7 7 6 9 13 14 15 13 11 12 13 11 8 6 7 8 12 16 17 19 20 21 23 24 25 24 20 20 21 23 23 23 22 18 19 21 21 23 24 22 18 17 18 16 14 14 15 14 13 13 11 10 8 6 5 4 4
7 6 7 8 6 7 7 8 9 7 6 3 3 4 3 3 2 3 5 3 1 3 2 6 6 6 7 9 7 5 5 4 6 9 10 13 14 14 15 13 12 12 10 10 9 9 13 17 19 21 23 26 25 24 23 20 20 22 24 27 29 27 23 21 21 22 23 22 20 18 17 17 17 16 15 14 13 12 11 10 9 7 6 5 5 5
4 3 9 10 7 8 7 7 11 7 6 5 4 4 3 3 4 4 3 4 3 2 2 6 2 5 4 7 7 2 1 3 5 6 5 8 11 11 11 10 11 12 11 12 11 8 10 15 18 21 25 26 25 25 24 23 23 24 26 30 32 31 30 27 23 23 24 21 19 18 17 17 16 16 15 14 13 12 11 10 9 7 7 7 6 6
5 3 9 12 9 9 8 7 10 9 6 5 4 6 6 5 4 3 1 3 2 3 3 4 2 6 4 7 8 2 1 5 5 7 9 9 10 8 7 8 10 11 10 11 10 9 10 13 17 21 24 24 24 26 26 25 26 26 27 30 33 32 33 32 27 25 24 22 21 21 22 20 18 17 16 15 14 13 12 10 10 9 7 7 6 6
4 3 6 12 11 9 8 6 8 9 7 4 5 8 7 6 4 2 2 4 3 5 4 3 5 5 5 4 6 3 5 6 4 6 9 9 9 9 9 9 10 10 10 9 9 10 10 13 16 19 24 23 24 26 26 26 27 26 27 30 32 31 31 32 29 25 25 23 23 24 24 23 21 19 16 14 14 13 12 11 10 10 8 7 7 8
6 7 4 9 11 10 8 6 6 9 7 3 6 10 8 5 5 3 3 3 3 3 4 1 4 3 4 4 3 2 5 5 4 5 6 7 9 12 11 9 9 10 10 8 10 11 11 14 17 18 21 24 24 25 26 28 28 27 28 30 30 29 28 29 28 26 25 24 25 24 23 22 20 19 17 15 14 13 13 13 12 11 11 10 9 9
7 11 7 7 9 8 7 6 7 9 6 5 8 11 8 6 6 3 4 2 1 2 4 4 1 3 5 5 3 2 3 4 6 7 8 10 12 13 11 8 8 9 9 9 10 12 13 16 19 18 20 23 24 26 28 30 29 27 27 27 27 27 27 27 27 27 26 25 25 23 21 20 18 17 17 17 15 15 15 15 14 14 13 12 12 13
4 11 10 7 7 6 6 6 8 10 5 5 9 10 7 6 4 3 3 2 2 2 5 5 1 2 4 5 0 2 2 5 7 8 10 11 11 10 8 8 9 8 9 10 11 12 13 15 18 18 20 22 24 27 29 29 27 25 25 26 26 26 26 26 26 27 25 24 23 22 21 19 17 16 17 17 17 17 17 17 17 16 15 15 15 14
2 5 8 6 5 5 7 6 8 10 7 6 8 7 5 2 1 2 1 1 1 4 6 6 4 3 3 5 3 3 4 7 7 7 7 7 8 8 9 10 10 10 9 10 10 11 12 14 19 20 21 22 23 25 27 26 24 24 25 26 26 26 26 26 26 26 24 23 22 21 20 19 19 19 19 19 20 20 19 19 19 18 17 16 15 14
5 2 5 5 6 7 7 7 6 9 8 7 6 5 5 2 2 2 2 2 4 5 5 6 6 5 4 5 4 5 6 7 8 8 9 10 11 10 10 10 10 10 9 9 10 10 10 12 16 19 20 22 23 24 24 24 23 24 25 26 25 25 25 26 26 25 24 22 21 20 20 19 19 18 19 21 22 22 21 21 21 20 19 17 15 13
6 3 3 4 8 9 8 7 5 6 7 6 5 6 6 3 2 3 3 2 4 4 3 5 6 3 6 6 6 8 9 9 9 10 11 11 12 11 11 11 9 9 9 9 9 9 10 10 12 16 19 21 23 23 23 24 23 24 25 25 25 24 24 26 25 24 23 22 21 20 20 18 17 17 19 22 24 23 22 22 22 21 20 18 15 12
4 3 4 5 7 9 10 8 6 6 7 6 6 7 7 5 5 7 4 1 2 3 3 3 3 2 4 5 9 12 12 11 11 10 8 8 11 12 11 10 9 9 10 10 10 10 10 10 11 14 18 20 22 23 23 23 23 24 24 24 23 21 21 23 22 23 22 21 20 19 17 16 17 19 20 21 23 23 22 22 22 22 20 18 15 12
6 3 6 7 5 9 11 8 7 7 7 6 3 5 5 4 5 5 3 3 3 3 2 2 2 3 3 4 8 10 9 6 6 6 5 7 9 9 8 8 9 9 10 9 10 11 10 10 12 15 17 19 21 22 22 23 23 22 21 21 19 16 16 18 19 19 20 19 19 18 16 16 19 20 20 20 21 23 23 23 23 21 19 17 14 12
5 3 5 7 5 11 12 6 6 8 6 4 3 5 4 4 5 3 3 6 4 2 2 2 3 4 4 4 3 2 2 1 4 5 7 8 8 10 9 9 10 9 10 10 10 11 10 11 13 15 17 19 20 21 21 22 21 19 17 17 15 14 15 17 18 18 18 18 18 17 18 19 20 20 20 22 22 23 23 23 22 20 18 16 14 12
4 3 4 8 7 9 12 9 7 8 6 3 3 4 4 4 6 4 2 1 4 4 3 2 3 4 3 4 4 4 4 4 4 5 7 9 10 11 10 9 10 10 10 11 11 10 10 10 12 15 17 18 19 20 20 20 18 18 17 16 14 15 16 17 18 19 18 19 18 18 19 20 21 21 21 23 24 24 24 23 21 20 17 15 13 12
6 2 5 9 9 8 10 11 8 8 7 5 5 6 2 3 3 3 2 2 4 3 4 1 4 3 1 3 4 5 5 3 4 6 8 10 11 11 10 10 11 11 10 10 10 10 10 10 12 15 16 17 18 19 19 17 16 18 19 19 17 18 19 18 19 20 19 20 21 21 21 21 22 21 22 23 25 25 25 23 21 19 17 15 13 12
4 2 5 8 11 5 6 10 7 7 6 5 6 6 3 3 2 1 2 1 2 3 3 2 2 3 4 4 4 1 6 6 6 8 10 12 13 11 10 11 12 11 9 9 10 10 10 10 12 15 15 16 17 18 18 17 17 18 19 18 18 18 20 20 20 20 20 22 23 22 22 22 23 22 23 24 26 26 24 23 21 19 17 16 13 12
1 2 2 6 9 6 5 7 8 6 3 3 6 6 3 3 3 3 3 2 3 3 2 1 2 3 5 6 5 8 9 9 10 10 11 13 13 12 12 13 13 12 10 10 10 10 9 9 12 15 15 16 17 18 18 18 17 18 19 19 19 20 21 21 20 20 21 23 23 23 22 22 23 24 25 26 26 26 24 23 21 19 18 16 14 13
1 1 1 3 4 7 5 6 8 9 6 4 7 7 4 1 2 3 2 1 3 3 2 1 1 5 6 5 7 8 8 10 11 10 11 12 13 13 13 13 12 12 11 10 10 9 9 9 12 15 16 17 19 19 20 19 19 21 22 22 22 22 23 22 21 21 21 22 24 24 24 23 24 26 27 27 27 26 24 23 21 20 18 16 14 13
1 0 1 2 4 6 5 4 7 9 8 6 5 5 6 4 3 4 2 1 2 2 3 3 1 6 6 3 5 5 6 8 7 7 8 11 13 13 12 11 11 10 11 10 10 9 9 9 12 16 18 19 20 21 21 21 21 23 25 26 25 25 25 23 22 23 23 24 25 26 26 26 26 27 27 28 26 25 24 23 21 19 17 16 15 14
3 1 1 2 4 5 4 4 9 11 9 6 4 5 6 5 4 5 5 3 1 0 1 3 1 6 5 3 4 4 4 6 7 7 7 8 9 10 9 9 10 9 10 10 9 9 8 10 14 18 19 19 20 21 23 22 23 25 26 28 27 26 26 24 24 25 25 25 26 28 29 29 29 28 28 27 25 24 24 22 20 18 17 17 17 16
3 1 1 1 1 1 3 1 6 10 9 6 4 5 7 7 5 5 5 4 4 3 1 2 2 6 5 4 3 3 4 6 8 8 9 8 6 7 9 9 9 8 8 9 9 8 8 10 13 15 15 17 18 21 23 23 24 25 27 28 28 28 27 26 26 27 28 29 29 29 31 31 31 30 28 26 25 24 23 21 20 18 17 18 18 18
3 1 1 2 4 3 4 3 3 6 7 6 5 4 6 9 7 4 2 3 3 4 4 4 4 7 5 4 3 2 6 7 7 8 10 10 8 8 9 9 9 8 9 10 9 8 8 8 9 10 13 15 17 19 22 24 25 25 27 28 28 28 28 28 28 30 31 32 32 31 31 32 32 30 27 26 24 24 22 21 20 18 18 19 19 18
3 2 3 4 5 6 5 4 4 4 4 3 4 6 6 9 11 6 2 3 2 3 4 5 4 7 6 5 6 5 7 7 7 9 9 9 10 10 9 9 9 8 9 11 9 7 8 8 8 10 13 15 17 19 21 23 25 26 27 28 28 29 30 29 29 31 32 33 33 32 32 32 31 29 27 25 24 23 21 20 19 19 18 18 18 17
1 2 3 5 5 6 7 5 3 5 5 3 6 9 8 8 10 7 4 3 4 3 3 6 6 4 7 4 3 3 6 7 7 9 10 9 10 10 9 10 9 7 7 9 9 8 8 9 9 10 13 16 18 20 21 23 26 28 29 27 27 29 31 30 30 31 31 32 34 33 32 31 30 28 27 25 24 23 21 20 19 19 18 17 16 16
0 3 3 5 6 7 7 7 8 10 8 8 9 11 10 8 8 7 5 5 5 5 4 7 4 3 7 3 2 2 4 6 5 8 10 9 9 9 9 10 11 9 8 8 10 10 9 9 9 10 13 17 19 21 22 24 26 28 30 28 27 28 30 30 30 30 29 30 32 33 32 30 29 28 27 25 24 23 22 21 20 19 18 16 15 17
2 4 4 4 4 5 5 6 10 12 9 9 12 11 9 8 10 10 8 7 7 6 7 6 6 6 6 2 3 4 3 4 4 6 8 8 8 9 10 13 13 11 9 10 10 10 10 10 9 10 13 18 21 22 22 23 24 26 28 30 29 28 28 29 31 31 30 30 31 32 32 30 29 28 27 26 25 24 23 22 21 19 18 17 18 21
2 3 4 3 1 1 1 5 9 12 10 8 11 13 11 11 13 12 8 6 6 4 5 5 7 7 7 4 3 3 3 3 4 6 7 8 9 10 11 12 12 11 11 11 11 10 10 10 10 11 14 18 21 22 23 23 24 25 26 28 30 29 28 31 34 34 34 33 32 32 31 30 29 28 27 27 27 26 25 23 22 20 19 20 22 24
1 3 2 2 2 5 4 2 7 11 12 9 7 8 10 10 8 6 4 4 3 1 2 4 3 6 6 3 3 2 4 6 7 8 9 8 9 11 11 11 12 12 12 11 11 11 10 10 10 11 13 17 20 23 23 23 25 26 25 27 30 30 30 33 36 35 33 33 32 32 31 30 29 29 29 29 28 26 25 24 22 22 22 23 24 26
1 1 2 3 4 4 4 3 6 8 11 10 5 6 8 8 6 4 3 5 6 4 2 4 1 5 4 3 5 3 6 9 8 9 9 8 9 12 12 11 12 13 13 12 11 11 11 11 12 11 13 17 21 23 24 24 25 26 26 26 28 32 34 35 34 32 31 31 31 31 30 29 29 30 29 29 28 27 25 23 23 24 24 25 25 27
0 1 3 2 4 2 4 3 7 8 9 5 4 7 8 6 5 3 1 3 6 6 6 4 4 6 4 6 6 5 7 9 8 8 8 8 10 11 11 11 11 11 12 11 11 11 10 10 11 13 16 19 21 23 24 26 26 25 27 28 29 33 36 34 32 30 28 27 28 29 30 30 30 30 30 29 28 27 25 24 24 25 25 25 26 27
2 3 2 1 4 1 3 2 6 8 5 5 6 5 5 4 6 6 2 5 7 4 3 4 5 3 4 6 7 7 6 7 6 6 7 8 9 9 9 10 10 10 11 10 9 9 8 8 11 15 18 20 22 23 25 26 27 27 29 31 30 30 31 31 30 30 28 27 28 28 29 30 30 31 31 31 29 28 26 25 25 25 25 26 27 28
2 2 1 1 4 2 2 4 6 4 5 6 4 3 4 4 7 7 3 2 5 3 1 1 1 1 3 4 5 6 5 6 6 5 5 7 9 10 10 9 10 11 10 9 9 7 6 8 12 15 18 21 23 25 25 26 28 28 29 31 31 30 30 30 30 30 30 29 28 28 29 30 31 31 31 31 30 28 27 26 26 26 26 26 27 29
1 2 1 2 3 2 2 5 4 3 5 4 3 1 3 2 3 5 4 3 1 4 2 1 1 2 5 5 5 6 6 6 6 5 5 7 9 10 11 10 10 11 10 9 11 11 12 15 17 19 21 23 25 26 25 26 28 28 28 30 31 30 30 31 30 29 28 28 28 28 29 30 31 31 31 31 30 28 27 27 26 26 26 26 27 29
4 2 1 2 2 3 4 3 1 1 3 4 3 1 2 1 0 4 4 1 2 3 5 4 3 4 6 5 5 6 6 6 5 3 6 8 8 8 8 8 9 9 10 13 14 17 23 27 27 25 25 25 26 26 26 27 29 29 28 29 30 30 29 29 29 28 28 28 29 29 29 30 31 31 31 31 30 29 27 26 25 25 26 27 28 30
4 3 2 3 2 2 5 4 3 4 2 3 5 3 1 3 5 4 6 1 5 4 3 6 6 6 6 6 7 7 5 5 2 4 6 8 8 8 8 7 7 9 13 16 16 15 19 25 28 28 29 28 26 26 28 29 29 29 27 28 31 32 30 29 29 28 28 29 30 31 31 31 32 32 31 31 30 29 27 26 25 25 26 27 29 30
2 0 1 4 3 2 5 5 2 2 1 4 7 7 5 4 5 3 6 1 6 6 2 5 7 7 6 7 8 7 5 4 4 5 5 8 8 8 9 8 8 10 15 19 20 17 17 22 26 27 28 29 26 26 29 31 31 29 27 27 29 31 29 29 29 29 29 29 30 31 32 32 32 32 32 31 29 28 26 25 25 25 26 27 28 29
5 4 3 5 3 2 4 3 1 2 1 3 6 7 6 2 3 6 4 4 7 5 3 5 7 8 7 7 6 5 6 5 5 4 7 9 8 8 9 9 9 11 13 17 21 23 23 24 25 24 24 26 28 28 30 30 29 28 27 28 29 28 27 27 28 28 28 28 29 31 32 33 33 32 31 30 28 26 25 24 24 26 27 28 28 29
4 3 3 4 3 3 4 4 0 2 2 4 6 7 6 1 6 6 4 7 5 4 4 5 7 7 7 8 6 3 3 3 4 4 9 10 9 8 8 10 13 16 18 21 23 26 27 26 27 27 26 28 31 32 31 30 27 26 27 28 26 24 25 27 28 29 29 29 30 32 33 33 33 31 30 28 27 25 24 24 25 27 28 28 28 28
2 3 3 2 3 3 3 4 2 2 2 3 6 7 3 2 3 3 5 5 3 3 4 5 7 7 7 7 3 1 2 3 2 5 10 10 10 9 8 10 12 14 18 23 26 27 26 24 26 28 28 28 30 31 31 30 27 26 27 27 25 24 25 28 30 31 31 31 32 33 33 33 31 30 29 28 27 25 25 25 26 28 29 28 28 28
1 1 1 1 1 2 3 4 3 0 3 3 5 5 3 2 3 5 3 2 3 4 3 5 7 7 7 6 3 2 2 1 3 5 8 9 9 9 9 10 11 11 15 20 24 26 26 23 24 26 26 26 28 29 29 29 27 26 26 26 25 27 29 29 31 32 32 32 32 33 33 32 30 29 29 28 27 26 26 27 28 29 29 29 29 29
1 2 1 1 1 3 3 2 1 3 4 3 2 1 0 2 3 4 2 2 3 2 3 4 6 7 8 7 4 2 0 1 3 5 6 8 9 10 10 10 11 13 16 19 21 25 26 23 22 23 24 26 28 29 30 31 31 28 26 25 26 28 30 31 32 32 32 31 32 33 32 31 29 29 29 29 27 26 28 29 29 29 29 30 30 30
1 2 3 2 1 2 3 3 4 4 4 4 2 2 4 5 3 2 3 2 3 2 3 3 5 6 7 7 6 4 2 3 4 6 7 7 8 10 10 11 13 15 17 18 20 23 24 24 23 23 22 24 27 29 30 32 34 30 27 28 30 31 31 32 33 32 32 32 32 32 32 30 30 29 29 29 27 27 28 30 30 30 30 30 30 30
1 1 1 1 0 1 1 1 2 2 3 4 4 3 5 5 4 2 1 3 4 3 3 3 5 6 6 7 7 5 3 4 5 5 6 6 7 9 9 10 12 16 18 18 19 21 22 22 23 23 22 22 25 27 29 32 34 32 29 31 33 32 32 33 33 32 31 31 31 32 32 31 31 31 30 29 27 27 28 30 31 31 30 29 29 28
2 1 2 1 1 2 2 2 4 3 3 4 5 4 3 4 4 3 1 4 5 5 4 3 4 5 6 7 8 6 5 5 6 5 4 6 7 8 9 9 11 15 17 18 20 22 22 21 20 21 22 23 24 26 29 31 33 33 33 33 33 32 33 34 34 32 31 31 32 32 32 33 32 32 32 30 29 29 29 30 31 31 30 29 28 27
2 1 2 1 2 2 1 4 5 3 3 2 2 3 4 5 6 5 3 4 4 4 5 4 1 4 5 5 6 6 5 4 3 3 1 1 3 5 8 9 11 14 17 20 22 23 22 21 20 21 23 24 25 27 29 29 30 32 34 34 33 34 35 34 34 33 31 31 32 32 32 33 33 32 32 31 31 31 31 31 31 30 29 28 26 26
1 2 1 1 2 3 1 4 5 4 3 4 4 3 4 5 6 6 4 3 3 4 4 5 4 2 4 5 5 7 7 6 5 7 7 6 4 2 4 9 13 15 17 20 22 23 22 22 22 23 23 24 27 29 28 28 29 33 35 35 35 36 36 35 34 33 32 32 32 32 32 32 32 32 32 31 31 31 31 31 29 27 25 24 22 20
2 2 1 2 4 2 1 3 2 2 1 4 5 6 6 5 5 5 5 5 5 4 3 4 5 5 4 5 5 7 8 7 7 8 7 4 4 4 2 6 12 14 16 19 20 20 22 23 24 24 24 24 27 29 28 27 30 33 35 36 37 37 37 35 34 32 32 32 32 32 32 32 32 32 32 31 32 31 30 29 26 24 22 21 19 17
2 1 1 3 3 1 3 4 2 2 1 4 5 6 7 5 4 5 5 4 5 5 2 2 4 4 5 5 5 6 8 8 8 9 9 9 9 8 5 7 10 13 15 18 18 18 19 22 23 24 23 23 25 27 26 27 31 34 34 36 37 37 37 36 34 32 31 32 33 33 33 33 32 32 32 32 33 32 30 28 26 23 22 20 18 17
Wind_Direction
155 188 208 202 195 183 184 176 187 200 131 153 142 144 175 170 232 236 229 248 186 171 218 203 195 213 229 244 244 215 137 146 177 174 175 177 179 186 189 197 204 208 200 142 161 175 175 180 184 184 186 185 185 189 188 186 185 189 194 195 193 196 200 203 203 201 198 198 198 199 199 197 196 200 205 210 212 212 208 203 203 206 211 215 222 233
164 208 216 197 173 167 169 159 181 208 119 134 151 144 158 172 219 238 222 257 201 171 232 204 192 218 226 240 238 173 138 161 171 173 181 182 185 189 192 202 205 194 148 140 157 167 172 177 179 180 182 180 181 187 188 186 185 189 190 189 194 201 207 209 208 206 204 203 201 197 196 194 190 192 197 194 191 190 188 189 196 201 206 212 224 231
200 218 193 168 159 147 157 155 172 205 188 124 145 136 144 193 226 266 260 279 158 178 248 198 191 226 229 239 238 174 167 194 183 181 182 182 186 191 198 204 200 180 156 163 164 165 173 174 173 176 179 182 186 188 187 183 182 187 186 184 189 197 207 214 212 211 208 206 207 205 200 195 187 183 186 183 178 178 180 182 186 190 194 200 206 202
205 213 156 154 158 139 153 163 161 197 208 156 120 129 159 210 170 208 257 300 186 191 206 168 190 246 246 254 252 188 182 189 187 194 190 187 189 192 199 201 194 187 178 178 175 166 168 169 173 176 179 184 187 186 185 181 177 184 188 186 188 190 199 211 212 210 210 207 207 208 202 196 187 177 174 172 168 171 173 171 172 173 171 174 180 177
226 225 156 154 163 157 159 171 169 185 209 182 155 154 174 200 186 191 238 322 318 278 138 140 203 283 253 245 248 222 156 172 175 182 196 210 205 202 206 203 198 196 189 186 182 166 162 169 175 178 181 184 184 184 187 185 183 187 189 190 192 192 195 203 207 207 208 206 200 193 183 178 173 165 163 160 158 163 168 164 161 157 158 167 171 168
243 251 160 160 171 172 169 178 181 180 189 206 195 180 184 195 215 238 350 31 34 259 238 148 212 278 267 237 243 278 156 189 178 174 190 208 209 211 215 209 204 201 198 193 179 163 162 167 174 181 184 183 181 185 188 190 192 194 193 194 198 197 195 198 202 203 204 202 195 184 173 168 162 159 164 167 166 167 166 159 154 151 155 167 166 163
220 237 166 170 173 172 181 189 191 175 164 213 205 177 183 182 199 255 55 86 157 231 262 169 187 260 301 262 252 242 196 201 189 186 198 202 203 210 214 209 203 197 196 189 171 162 161 167 175 184 184 180 180 184 188 192 197 199 198 198 200 199 196 195 196 199 199 197 193 187 181 177 174 171 170 174 174 168 159 150 150 152 152 160 162 162
177 198 195 181 173 176 191 188 187 169 152 220 193 163 170 176 193 207 104 123 206 246 303 328 159 216 272 265 280 229 197 225 232 216 216 205 205 213 214 210 202 196 189 178 169 166 169 180 186 183 178 178 180 182 187 195 199 201 200 199 200 200 196 193 193 194 195 194 191 188 185 182 184 182 172 169 166 157 151 147 148 150 149 152 154 156
167 191 198 181 181 191 186 165 162 155 153 218 182 160 172 191 197 164 118 173 294 355 298 302 123 188 252 275 336 83 176 244 244 224 220 211 211 212 209 204 198 191 181 173 171 172 180 189 189 179 172 175 178 181 190 198 201 202 200 199 201 198 195 194 192 191 192 192 190 188 186 181 181 179 168 162 155 149 150 147 145 145 143 145 146 147
172 192 188 174 191 192 161 148 153 156 174 199 166 153 164 195 197 143 144 217 321 314 244 258 232 198 267 280 328 96 183 239 235 229 223 214 213 207 195 194 191 181 177 176 175 180 190 191 184 175 170 172 176 182 192 199 201 200 197 197 198 196 194 193 192 190 188 189 191 190 186 181 175 169 161 155 149 148 152 147 144 143 142 144 143 143
253 186 180 176 186 170 147 148 160 168 171 149 144 133 122 139 140 125 134 118 204 265 241 228 206 172 268 279 214 186 205 201 205 227 227 207 201 196 192 194 187 178 178 175 175 182 186 181 176 172 169 170 174 182 191 196 197 196 194 194 195 194 193 192 190 189 187 189 193 192 189 186 178 169 162 155 150 151 153 148 144 143 143 145 144 141
270 201 182 171 154 149 145 157 172 176 165 141 143 133 118 103 56 60 1 82 188 249 257 216 183 159 234 264 239 233 234 205 195 211 214 201 196 194 195 195 185 177 174 169 173 178 173 170 171 169 166 167 172 181 189 193 194 195 195 193 192 191 191 191 190 188 188 191 194 193 193 189 180 176 172 162 157 156 156 151 147 145 146 145 143 141
247 236 219 167 157 163 157 157 171 181 175 156 150 146 143 151 154 194 219 192 208 246 261 191 159 177 237 245 242 243 245 228 210 214 212 199 193 192 192 189 180 172 171 169 172 176 174 171 169 166 164 165 172 181 188 191 193 196 196 193 191 190 189 189 189 188 189 191 193 193 191 185 182 187 182 169 162 162 161 158 153 150 150 148 144 140
213 249 232 187 170 173 169 166 171 182 183 172 163 164 164 158 173 201 204 187 234 240 239 187 161 245 263 257 235 226 235 234 220 220 207 181 186 191 187 179 170 170 173 176 178 180 182 175 167 164 163 164 172 181 187 189 192 194 194 193 191 188 186 186 186 187 187 189 191 191 190 188 189 190 182 171 167 165 164 162 158 155 154 149 144 138
178 220 217 193 178 172 178 184 163 151 170 182 150 138 158 169 172 192 193 179 209 240 253 199 169 195 201 236 227 219 246 254 216 204 164 158 177 173 165 164 165 173 175 177 182 184 182 172 165 165 164 166 172 180 185 188 191 191 191 191 188 182 179 180 181 182 184 186 188 189 193 195 192 186 178 173 172 168 164 162 158 154 152 147 140 134
175 245 222 194 188 171 174 181 145 136 166 194 115 118 178 190 148 126 171 174 169 195 246 201 203 215 210 245 271 235 277 55 142 152 137 149 158 150 159 169 169 176 176 179 185 182 177 169 167 166 166 168 172 179 185 187 188 185 180 180 180 175 170 170 174 180 185 188 186 185 189 191 189 183 174 170 168 164 162 160 155 150 147 142 136 129
163 284 237 183 193 188 171 166 167 164 165 162 145 169 194 165 126 113 181 142 101 165 235 210 211 269 287 282 337 52 77 90 116 139 141 149 151 154 165 170 172 179 180 182 182 176 171 167 168 168 166 168 172 179 184 185 181 173 168 166 163 163 163 166 173 179 185 185 180 180 185 187 185 179 173 168 163 160 157 154 151 147 142 138 133 127
158 250 258 180 187 215 175 158 176 181 157 147 191 203 150 107 105 104 140 13 65 166 254 239 186 220 225 261 324 47 103 132 140 146 146 150 154 161 167 169 178 181 177 178 174 168 169 168 168 167 166 170 174 180 182 177 170 169 172 168 159 157 160 167 175 181 183 180 175 178 181 180 178 175 173 167 160 156 153 149 147 145 139 135 132 129
166 188 278 196 183 202 164 155 177 202 182 158 180 193 150 146 198 126 136 147 116 172 268 310 228 218 195 222 282 214 179 177 161 157 157 161 164 166 168 173 179 178 173 172 169 171 173 169 166 163 163 166 171 178 178 169 165 169 173 171 166 162 162 166 173 175 175 172 170 171 174 174 173 172 169 161 155 154 151 149 148 144 139 136 134 131
212 147 251 219 182 152 149 173 182 198 209 142 155 178 172 142 167 171 157 161 157 175 231 294 326 256 225 216 214 212 200 177 167 170 171 171 172 171 172 176 178 179 177 172 172 176 170 161 159 160 160 159 164 171 170 164 161 163 168 170 168 165 163 165 167 167 166 166 166 167 169 169 166 164 161 156 154 153 150 149 148 144 141 138 136 134
331 166 191 233 176 146 170 201 184 175 172 160 166 177 176 128 119 150 166 147 135 146 180 173 277 254 246 210 189 208 206 184 179 180 176 173 174 176 179 178 177 176 173 171 173 170 158 149 151 155 154 153 157 162 163 160 156 156 160 163 162 159 158 156 157 165 169 165 162 163 163 159 156 157 155 153 153 151 149 148 145 143 141 138 137 139
222 237 152 182 176 170 180 173 159 164 164 156 164 177 176 168 122 137 193 247 102 128 169 148 253 264 255 203 182 199 196 186 186 184 181 176 176 180 180 175 174 170 168 170 169 160 149 144 146 149 149 150 153 155 157 156 153 152 151 153 155 153 153 155 161 168 166 159 157 157 155 153 153 153 151 149 149 148 147 146 143 142 142 140 141 143
180 129 117 195 197 201 197 160 155 162 161 148 158 180 177 165 132 143 184 211 174 237 148 122 253 271 262 230 201 201 185 170 164 167 177 179 180 179 171 168 168 165 163 162 159 152 143 141 145 147 148 150 151 153 154 151 148 148 147 149 153 151 154 163 167 165 159 156 157 154 151 150 150 149 148 148 147 146 144 142 141 144 145 143 144 146
180 163 264 306 225 313 356 66 150 157 157 163 192 183 172 180 166 147 168 177 181 211 158 112 266 273 277 281 259 207 175 159 151 154 161 167 177 171 163 165 166 160 156 154 152 144 135 138 143 146 148 148 147 149 151 148 145 145 144 148 153 154 156 160 160 158 158 157 156 153 149 147 145 146 147 145 143 142 141 139 142 147 148 146 147 147
196 200 109 87 107 90 44 59 139 176 177 182 194 174 171 181 168 143 138 131 167 207 159 141 236 256 268 315 2 107 138 141 141 147 155 162 167 164 161 163 162 154 151 154 150 137 132 137 141 143 146 143 140 143 146 145 144 142 143 150 154 153 155 160 160 158 155 152 148 145 143 140 140 143 143 141 139 138 139 142 147 150 150 149 149 147
186 192 123 123 142 153 166 175 179 186 175 157 160 162 175 185 177 173 117 107 179 211 151 155 223 264 291 358 40 82 120 128 136 146 155 161 162 161 159 159 158 154 154 153 146 136 136 140 140 142 142 138 136 139 142 142 142 142 145 153 156 154 157 162 159 152 147 145 141 138 136 136 139 141 141 140 139 140 144 148 150 151 151 151 150 148
127 230 162 155 173 180 180 183 161 135 134 143 163 169 185 196 183 162 119 149 187 163 179 213 208 264 298 329 43 93 130 137 147 150 155 161 159 157 155 154 153 150 148 145 140 140 141 141 142 140 136 135 135 138 141 142 144 146 149 153 155 157 159 157 150 144 142 141 138 134 133 135 139 142 142 142 143 145 149 151 151 150 149 150 151 149
208 284 220 181 204 209 186 166 156 149 155 164 162 175 194 190 166 152 162 197 167 131 251 253 188 213 274 263 202 217 151 147 160 156 156 159 155 150 145 145 148 149 142 139 144 147 145 143 142 136 134 136 137 139 143 146 147 149 151 152 153 154 154 150 142 137 135 135 134 134 136 140 143 144 145 144 145 148 150 150 150 148 148 150 151 150
186 271 239 202 218 219 200 185 166 151 155 160 156 171 185 168 162 176 197 203 163 165 240 234 165 204 255 229 202 225 178 144 145 145 148 148 144 142 142 146 152 153 147 146 150 152 150 149 145 139 139 140 141 143 145 146 147 148 150 152 153 152 149 143 135 132 135 137 137 138 142 146 146 145 145 145 146 148 149 150 149 148 148 149 148 147
169 262 240 209 274 357 263 211 176 147 141 155 162 170 170 165 172 181 192 190 167 195 238 180 169 231 248 202 185 213 182 137 122 134 145 145 144 145 148 153 156 155 153 153 154 154 155 155 149 144 144 145 146 147 147 146 146 148 149 149 148 148 145 140 137 141 146 147 145 144 146 147 146 146 147 146 147 147 148 149 147 147 147 146 145 145
191 253 255 128 60 6 14 163 169 151 144 147 155 159 154 151 156 153 149 151 142 276 273 133 150 264 262 173 129 157 155 136 136 151 153 148 146 148 152 157 157 158 159 158 155 154 156 157 154 151 150 150 151 150 149 148 147 148 148 146 144 145 145 143 144 149 151 149 147 146 146 146 146 147 147 146 146 146 147 147 146 146 145 144 145 146
218 245 326 60 76 348 356 102 143 136 131 132 133 147 147 141 142 154 169 169 168 175 140 96 105 265 258 126 115 145 148 138 145 155 151 147 150 153 159 163 162 163 164 162 161 160 161 161 160 157 154 152 153 153 151 149 148 147 146 143 143 144 147 148 149 149 148 147 146 145 146 148 147 146 144 145 146 147 147 147 146 145 144 144 147 147
133 55 314 56 95 342 342 103 122 105 106 136 194 184 163 138 133 136 150 204 182 152 138 154 222 233 191 134 134 153 150 145 150 153 152 153 154 156 163 164 165 167 165 164 164 162 161 160 157 155 154 154 155 155 153 151 149 147 146 145 146 148 150 150 147 144 143 143 144 145 148 150 148 145 145 147 149 149 148 147 147 146 146 146 148 148
57 61 290 182 118 71 335 75 108 102 128 212 236 198 161 136 145 143 153 213 198 159 159 209 231 213 160 145 151 156 151 146 146 149 155 154 153 157 163 165 167 167 164 162 159 154 150 145 145 151 154 155 155 154 152 152 152 150 148 147 147 146 145 143 142 142 144 145 146 147 148 149 147 147 147 149 150 148 148 149 149 148 148 148 149 149
56 105 249 34 103 119 9 57 93 125 213 244 271 216 173 170 165 142 100 190 189 190 278 309 348 109 121 127 140 140 131 128 126 129 147 159 161 160 164 173 174 167 162 154 139 125 114 122 137 148 153 154 154 152 152 153 152 150 147 146 146 145 143 143 144 147 148 147 147 147 148 148 148 147 147 149 150 149 150 151 150 150 150 150 150 151
160 150 174 45 79 124 70 69 111 199 254 297 345 142 144 104 126 118 69 16 200 193 192 104 57 108 111 118 133 127 119 119 117 120 148 168 173 165 166 178 178 167 156 141 130 130 139 147 153 156 156 155 154 153 153 153 152 148 145 144 145 145 144 145 147 148 146 144 145 147 147 147 146 145 147 150 151 151 152 152 153 153 152 151 151 151
170 166 132 64 64 128 113 87 68 356 339 349 1 45 114 62 266 148 131 359 303 213 175 155 143 132 125 124 124 122 114 100 97 136 163 167 168 160 161 171 169 159 150 147 150 156 159 160 160 159 157 156 155 155 154 153 152 149 145 143 143 143 144 147 149 149 147 145 148 150 149 148 147 146 148 152 152 152 153 154 155 155 154 152 152 151
177 210 190 106 67 83 102 85 35 36 11 270 267 284 276 227 231 176 124 77 306 286 187 160 144 138 141 136 135 139 116 92 121 211 183 166 158 145 143 147 148 151 154 154 156 157 157 156 155 156 157 156 156 157 155 155 154 149 145 145 145 146 149 152 152 152 152 151 153 153 152 151 150 150 152 154 154 154 155 155 155 157 157 156 154 153
89 318 94 97 76 55 95 100 95 105 172 251 263 290 307 252 224 146 99 54 290 290 241 177 155 151 157 150 151 153 123 116 218 231 179 161 155 140 139 137 134 147 157 157 155 150 149 148 148 152 156 153 153 156 157 157 155 149 146 148 148 149 152 155 155 156 156 154 153 153 152 152 153 154 156 157 157 156 156 156 156 158 159 158 155 155
24 10 43 80 79 73 94 94 151 188 212 267 270 287 297 265 124 96 106 243 265 273 245 193 170 166 165 160 168 169 146 165 225 217 154 149 144 134 141 143 141 147 151 152 151 149 148 147 146 148 152 153 156 161 161 158 154 149 147 150 151 153 156 156 155 156 156 154 152 153 155 156 157 159 160 160 159 158 157 157 157 158 158 156 155 156
360 1 49 90 86 74 89 91 85 251 258 275 283 289 290 342 76 91 181 224 241 259 240 194 178 181 178 171 177 182 176 221 245 177 141 138 134 131 136 140 145 151 151 150 151 150 150 151 151 154 160 163 164 164 161 157 152 148 148 150 152 156 157 154 153 155 157 156 156 157 158 159 161 162 163 162 160 158 158 158 158 158 156 154 154 155
355 360 26 64 66 61 88 101 79 298 268 274 294 299 307 89 109 177 219 219 210 237 237 198 185 195 197 183 153 77 283 274 247 152 139 135 137 137 133 133 138 145 150 151 153 154 153 154 156 160 165 167 165 162 160 156 152 149 150 151 153 157 157 154 155 157 158 157 157 158 159 160 161 163 163 162 160 158 157 158 158 157 155 153 153 152
92 63 16 337 137 89 59 63 70 224 256 298 326 335 21 98 184 215 245 281 234 211 200 198 197 196 199 190 131 44 328 23 96 139 142 135 137 137 135 139 138 140 147 151 155 158 156 154 159 163 165 165 161 159 158 154 148 148 151 153 156 159 158 157 158 159 158 157 157 158 159 160 161 163 162 161 159 157 156 156 156 156 155 154 152 150
80 133 149 230 181 109 72 60 132 205 248 299 357 56 249 282 236 203 190 311 283 225 177 199 211 203 197 190 159 114 345 98 120 149 145 136 140 141 141 144 141 143 151 154 158 160 157 155 160 162 161 162 160 159 159 155 150 151 156 157 157 158 157 158 159 159 158 158 158 159 160 160 162 164 162 160 159 157 155 155 156 155 155 154 152 150
317 201 167 158 152 116 136 197 222 233 260 290 311 233 264 303 309 208 198 273 294 243 180 193 221 214 197 183 163 151 182 188 171 167 158 150 148 145 144 145 144 146 151 154 156 160 159 158 159 157 157 160 160 158 160 158 155 155 157 159 161 161 159 158 158 158 158 160 161 160 161 161 164 165 163 162 161 158 156 156 156 155 155 156 155 153
280 243 146 125 347 19 123 202 283 318 306 313 317 273 263 297 331 344 303 301 299 268 213 213 231 219 189 173 171 174 192 193 174 170 167 153 146 144 140 139 143 146 149 150 153 158 159 157 156 154 152 155 158 158 159 161 163 163 162 162 163 163 161 158 157 158 160 162 162 163 163 163 164 165 165 165 164 161 160 160 159 157 158 158 158 157
303 101 77 42 21 60 69 323 326 330 309 320 336 328 309 309 318 326 286 274 290 303 297 264 232 209 186 176 176 173 177 177 167 167 168 154 149 150 143 137 143 147 148 150 154 156 155 153 153 153 151 153 160 163 163 167 171 169 164 162 163 163 162 160 159 160 162 163 163 164 165 165 165 165 165 166 165 163 162 163 163 161 160 162 162 161
299 69 51 14 36 87 191 281 305 306 272 290 345 347 335 327 320 315 288 268 286 314 318 313 219 172 175 177 168 153 143 140 126 105 76 109 140 145 142 141 143 146 148 152 155 156 155 155 157 158 157 158 163 166 167 169 170 167 163 163 164 164 162 161 161 163 165 165 165 165 167 169 169 167 166 166 167 166 164 165 165 164 164 166 167 166
314 3 352 37 34 33 323 316 345 14 357 352 6 352 319 312 310 310 312 326 351 353 349 3 28 114 150 152 147 133 119 104 88 74 50 25 15 36 130 140 141 144 148 152 156 158 159 159 160 162 163 163 163 166 168 168 164 162 163 163 165 165 162 162 164 165 166 166 166 166 168 170 170 170 168 167 168 168 168 168 168 167 167 170 172 171
43 1 324 74 62 47 310 310 344 70 337 316 325 327 320 314 313 321 340 359 354 343 359 33 30 35 76 100 116 128 131 134 131 121 108 85 46 20 39 131 137 141 147 152 157 161 161 161 164 166 165 165 165 166 167 164 160 161 163 164 166 166 164 162 163 164 165 166 166 167 167 167 168 170 170 169 168 167 168 170 172 171 171 172 175 175
112 191 198 118 115 196 251 261 237 150 221 266 275 300 318 325 333 345 358 350 318 309 328 69 67 51 55 70 98 134 152 161 159 154 155 150 135 127 140 153 144 140 147 153 155 156 159 162 165 166 165 165 165 165 164 161 160 162 165 166 168 168 166 164 163 162 164 166 167 167 168 167 167 169 170 171 171 169 169 171 175 179 180 180 181 183